GFSSGP_925_thetae_000.txt.gz
Theta_e
312 312 315 317 320 324 327 328 332 339 339 338 336 335 339 342 340 345 337 335 332 338 341 341 338 338 338 339 339 338 337 335 336 337 336 334 332 332 330 329 327 326 326 327 327 333 331 336 337
313 311 314 319 321 323 326 328 332 336 338 336 336 338 337 340 340 339 336 333 332 337 340 341 339 339 339 339 340 339 338 335 334 333 332 332 332 331 330 329 329 327 327 331 333 333 332 330 334
313 312 318 320 321 324 326 327 337 337 336 337 337 337 338 337 335 334 334 330 331 335 337 340 338 339 341 341 341 340 338 335 334 333 334 335 334 332 331 329 326 322 324 326 328 330 329 329 329
314 315 319 321 322 325 327 332 334 336 337 336 332 335 338 338 335 335 333 329 329 331 334 332 333 334 335 337 337 337 337 336 333 332 332 332 331 328 324 321 321 322 323 325 326 325 325 327 330
313 318 322 323 324 327 330 332 334 333 334 336 334 335 337 339 340 335 334 331 328 328 331 330 328 329 329 328 328 329 330 329 326 325 326 326 324 323 322 321 322 321 322 322 323 324 325 326 325
317 321 323 323 325 328 330 332 330 328 331 333 333 332 335 339 336 334 333 330 327 328 331 331 325 324 323 323 322 322 322 323 323 323 323 323 323 322 321 320 318 318 318 319 321 321 323 325 326
318 320 321 321 322 323 323 324 325 326 326 327 329 328 336 338 335 334 331 328 328 327 329 331 331 328 322 322 322 322 323 323 322 323 323 323 323 323 322 320 319 318 318 318 317 317 317 320 322
315 317 317 318 318 316 315 316 319 321 324 329 329 325 332 335 336 335 331 329 329 330 330 331 332 331 332 330 322 322 321 321 322 322 323 323 324 323 322 319 320 317 315 314 314 313 313 313 316
314 316 315 314 315 315 315 315 315 319 324 324 325 326 330 336 337 336 333 330 330 331 333 333 332 332 331 329 328 324 323 323 323 327 325 327 328 328 326 321 318 317 316 315 312 311 310 310 315
317 317 315 314 315 315 315 315 315 317 318 319 323 327 334 338 337 337 335 332 333 333 334 334 334 333 331 328 330 329 329 330 331 331 331 329 329 329 325 325 319 316 316 318 316 315 313 316 317
317 316 315 314 315 316 315 315 315 315 316 317 319 325 335 337 337 336 334 331 333 334 334 334 335 334 332 328 329 327 327 328 329 332 332 331 330 328 327 326 324 324 323 322 321 321 320 320 318
316 316 316 315 315 316 316 316 316 316 316 317 319 324 332 336 334 332 330 330 330 332 334 336 335 335 334 329 328 328 327 327 327 329 332 330 328 327 327 324 323 322 322 322 321 321 321 316 314
318 318 318 316 316 317 316 317 318 317 317 316 319 327 330 331 330 330 329 328 328 332 336 337 337 335 331 333 329 329 328 326 327 327 327 328 326 325 323 321 320 319 320 320 320 319 316 311 309
319 319 318 318 318 317 318 318 318 317 317 317 318 324 329 330 328 329 329 330 331 333 336 338 337 333 328 328 329 327 325 324 324 323 322 325 325 322 319 317 316 316 316 318 318 317 313 311 309
318 319 320 318 318 319 316 319 318 317 316 317 316 319 326 328 327 326 327 329 329 330 333 337 335 327 327 326 324 322 320 319 319 319 319 320 320 318 318 316 316 316 316 318 319 318 314 312 309
318 319 319 319 319 319 320 320 319 319 319 318 319 318 322 328 328 326 326 329 331 331 333 333 330 323 323 323 322 321 320 320 319 319 318 319 319 319 318 316 316 316 316 316 316 316 315 313 310
318 317 316 319 318 320 320 320 321 317 317 320 320 319 317 324 329 330 331 330 328 328 330 331 327 319 320 322 322 321 321 319 316 316 315 316 316 316 316 315 315 316 316 315 315 315 314 313 311
317 317 317 317 318 319 321 321 318 317 317 319 320 319 317 321 328 325 322 321 323 326 329 329 322 320 322 322 320 317 316 315 314 313 313 313 313 313 314 314 315 316 316 315 314 315 314 313 311
317 317 318 317 318 321 322 319 318 318 319 319 319 317 318 322 320 319 318 318 322 327 327 326 323 318 317 315 314 314 314 313 313 313 312 313 312 312 312 312 313 313 314 314 315 315 315 315 313
317 318 318 318 318 321 321 320 318 318 318 319 319 319 319 319 319 318 318 318 320 322 322 318 315 314 313 313 313 312 312 312 312 312 311 311 308 308 308 309 310 310 311 311 313 314 314 315 314
318 318 320 320 320 321 321 322 319 318 318 318 318 318 318 319 318 318 318 317 317 316 316 315 314 313 312 312 311 312 312 311 311 310 309 307 307 306 306 307 308 308 308 308 309 310 311 312 313
320 318 320 320 321 323 321 323 321 318 318 318 318 318 318 317 317 316 316 316 315 316 314 313 312 312 310 310 310 310 310 309 309 308 307 306 305 305 305 305 306 306 306 306 306 306 307 308 310
321 319 320 321 322 323 323 322 323 319 319 318 317 317 317 316 317 317 315 314 314 314 313 313 312 311 310 309 309 309 309 308 308 307 305 304 303 304 304 304 304 305 305 305 305 306 306 307 308
319 320 321 322 324 327 323 322 324 321 319 318 317 318 317 317 315 315 314 314 314 314 313 312 311 310 310 309 307 308 309 308 307 305 304 303 303 303 303 303 303 304 303 303 303 303 303 303 303
321 321 325 329 328 326 320 321 323 318 317 318 318 318 318 318 316 316 315 315 314 314 312 310 310 310 309 309 307 307 307 306 305 304 303 302 302 301 302 302 302 302 302 301 301 301 301 299 299
321 322 326 325 325 323 320 321 322 318 317 316 316 316 316 316 316 315 314 314 314 313 312 311 310 310 308 307 306 305 306 306 304 303 301 301 301 301 302 301 301 301 301 301 301 299 297 297 297
321 324 320 323 318 327 321 321 319 317 317 316 316 316 316 316 315 314 313 313 313 313 311 311 310 309 308 307 307 306 306 304 302 301 300 300 300 300 300 300 299 297 297 297 296 296 295 295 294
321 319 323 321 327 318 316 318 319 320 319 316 316 316 317 316 315 315 314 312 312 312 311 311 311 310 309 308 306 305 303 302 300 299 299 299 299 300 298 297 297 296 296 296 295 295 294 294 293
322 322 320 319 321 321 321 318 319 318 316 316 316 316 316 316 315 315 313 312 312 312 311 310 310 309 307 305 304 302 301 299 299 299 298 298 298 297 297 296 296 296 295 294 293 293 293 293 293
319 320 319 317 318 320 321 320 317 317 316 316 316 315 315 315 315 314 313 312 312 311 310 310 308 305 304 302 301 301 300 299 298 298 298 297 297 297 296 296 295 294 294 293 292 292 292 291 291

GFSSGP_925_thetae_003.txt.gz
Theta_e
310 314 316 320 322 323 331 333 333 334 336 337 333 336 336 339 344 347 336 334 338 341 341 341 339 339 339 339 338 338 338 338 338 338 336 334 333 332 331 329 328 327 327 328 328 333 332 335 338
317 315 317 321 322 325 330 328 332 334 333 331 331 331 333 338 340 338 334 333 338 341 341 343 338 339 339 340 339 338 337 335 335 334 334 334 333 332 330 329 328 325 325 330 334 336 333 331 333
317 316 320 320 323 325 328 327 333 332 331 332 330 331 333 336 335 333 331 332 336 338 340 339 340 340 340 341 341 339 337 334 334 334 334 336 335 334 331 326 321 321 325 328 329 328 329 330 329
316 317 320 322 325 326 326 331 330 331 332 331 329 332 336 333 333 332 329 330 332 334 338 336 340 341 342 342 342 341 339 338 335 333 332 331 330 327 323 321 321 322 323 324 324 325 325 324 324
316 320 322 323 326 327 329 329 329 330 330 330 328 329 336 337 334 331 329 328 329 329 331 337 334 334 333 334 334 334 333 332 329 326 327 326 324 323 321 320 317 315 317 318 321 322 323 324 325
318 322 324 325 325 328 329 330 329 327 328 327 328 329 336 335 332 331 329 327 326 328 330 330 324 325 326 327 326 326 326 326 325 324 324 325 324 323 321 319 316 314 315 316 317 317 317 318 320
319 324 324 325 326 326 327 326 325 324 325 325 325 328 334 332 332 330 327 325 324 327 330 330 330 329 322 322 322 323 323 323 324 324 323 323 322 322 320 317 316 313 312 313 313 312 311 312 314
320 322 322 322 323 322 320 321 323 323 325 324 324 325 331 333 331 329 327 325 325 326 330 332 331 330 332 332 322 322 321 321 322 322 322 322 328 326 324 323 320 315 315 314 313 311 310 309 309
319 320 319 318 318 317 317 317 317 318 322 322 322 328 327 334 332 330 327 325 327 328 331 332 332 330 330 328 325 325 324 324 326 329 329 330 330 328 327 326 322 316 316 317 318 316 313 313 317
318 318 317 317 317 317 316 317 316 318 320 318 321 324 330 333 333 330 327 327 329 332 331 334 334 332 330 325 327 326 326 329 330 330 330 329 329 328 326 327 326 325 325 323 322 321 321 320 319
319 318 317 316 316 316 316 316 316 316 316 318 320 322 330 331 331 331 329 327 329 331 330 333 337 333 329 326 327 327 326 326 328 330 330 328 328 328 327 326 326 326 325 323 322 323 322 321 318
318 317 317 316 316 317 316 317 316 317 317 318 319 324 329 332 331 330 330 328 329 330 329 334 337 332 330 328 327 327 326 326 326 327 328 327 326 326 325 323 322 320 320 321 321 321 321 319 314
317 317 317 317 317 317 318 317 319 317 317 318 320 325 329 331 331 329 329 328 328 328 329 332 335 330 328 329 329 329 328 327 326 326 325 325 324 324 322 320 319 317 317 318 319 318 318 316 312
319 320 320 320 320 319 319 319 319 319 319 318 319 323 327 328 329 328 328 328 327 327 330 332 334 331 326 326 329 329 326 324 323 322 321 322 323 322 320 318 317 317 317 317 317 318 318 315 312
320 320 320 320 321 321 320 320 319 319 319 319 318 320 324 327 326 327 328 328 329 329 329 333 334 329 325 326 326 323 320 320 320 320 320 320 320 320 320 319 318 317 317 317 317 318 318 317 315
320 321 321 321 321 321 321 323 320 320 320 320 321 320 321 325 325 325 326 327 327 328 329 332 332 326 323 324 322 321 321 320 321 320 319 320 320 320 320 318 318 317 318 318 317 317 317 317 316
320 321 319 321 321 321 321 322 322 321 320 321 321 321 321 323 325 326 325 325 327 327 328 330 331 323 322 323 322 322 321 320 318 317 317 317 317 317 317 317 317 317 318 318 318 317 317 317 316
320 318 318 319 321 319 320 321 321 321 321 321 322 321 321 321 325 327 329 327 326 326 326 328 329 321 321 323 322 319 318 318 317 317 316 316 316 317 317 317 317 317 317 317 317 319 318 318 317
319 319 319 320 320 320 322 320 321 322 322 322 321 321 321 321 326 328 325 324 325 328 326 326 325 323 321 320 318 316 316 316 316 316 316 316 315 314 313 313 313 314 314 315 315 316 316 317 316
320 320 321 320 319 321 323 321 321 321 322 322 321 322 323 324 324 323 322 323 324 327 327 325 322 318 317 316 316 315 315 315 315 315 313 313 312 312 311 311 311 310 311 311 312 313 315 315 315
321 321 323 322 321 320 322 323 321 320 321 320 321 321 321 321 321 322 322 323 323 322 321 319 318 316 315 314 314 314 314 313 313 313 312 312 311 310 309 308 308 309 309 309 310 310 310 312 312
323 320 321 321 322 324 322 324 323 321 320 320 321 321 320 320 319 319 320 320 320 319 317 316 315 314 313 313 313 313 312 312 312 312 311 310 308 307 306 307 307 307 307 307 307 306 308 308 309
324 322 322 322 323 323 323 322 324 321 321 320 320 319 319 319 320 320 319 318 318 317 317 316 315 313 313 312 311 312 312 313 312 311 309 307 306 306 305 305 305 305 305 305 306 306 306 305 306
322 323 323 325 325 326 325 323 326 324 322 320 320 320 320 319 319 318 317 317 317 317 316 315 314 313 313 312 312 313 312 311 309 308 307 306 305 304 304 303 304 304 304 304 304 304 304 303 302
322 324 329 330 329 329 323 321 325 321 320 320 320 320 320 320 319 318 318 317 317 316 315 314 313 313 313 313 311 309 308 308 308 307 306 304 303 303 302 303 303 302 302 302 303 303 301 299 299
322 324 330 326 327 325 322 320 324 320 319 318 318 318 318 319 319 318 317 317 316 316 315 315 314 313 312 311 310 310 309 308 306 305 303 302 302 302 302 302 302 301 301 300 300 300 300 298 298
323 324 321 326 324 327 321 321 322 320 319 318 318 318 318 318 318 317 316 316 315 315 315 314 313 313 312 311 310 309 307 305 304 303 302 301 301 300 300 300 300 299 298 298 298 298 297 297 297
323 321 326 322 327 319 318 317 323 321 320 319 318 318 318 318 317 317 316 316 315 314 314 313 313 312 312 310 308 306 305 304 302 301 301 300 300 299 299 299 298 298 297 296 295 295 296 296 295
323 324 321 318 320 322 321 320 320 319 318 317 317 317 317 317 318 317 316 315 314 314 314 313 313 312 309 307 304 303 303 302 301 300 300 299 299 298 298 298 297 297 296 295 295 295 295 295 295
321 321 319 319 318 319 321 322 319 318 317 317 318 317 317 317 317 316 314 314 313 313 312 312 310 307 306 304 303 302 301 301 300 300 298 297 297 297 296 296 295 295 295 294 294 293 293 292 292

GFSSGP_925_thetae_006.txt.gz
Theta_e
308 312 316 318 321 322 323 331 335 336 336 333 334 334 336 340 346 346 336 339 342 342 340 339 339 339 339 338 338 337 338 338 338 337 336 334 333 332 331 329 327 325 323 328 334 335 330 328 331
311 318 316 320 322 324 327 332 332 333 332 328 330 330 335 338 337 334 335 339 341 343 343 341 338 338 339 339 338 337 336 335 334 334 334 333 333 332 331 328 321 320 323 327 326 327 331 329 329
312 318 318 321 322 322 329 329 333 330 328 329 330 335 334 335 333 332 335 339 343 344 341 337 338 339 340 341 339 338 334 333 333 334 335 334 334 331 326 321 321 321 324 324 325 324 324 324 324
317 317 317 319 320 326 328 332 330 329 331 330 330 334 333 332 331 331 333 336 337 341 336 338 340 341 342 341 341 340 338 336 333 331 330 329 327 324 322 320 318 316 314 316 318 321 322 322 323
319 319 318 322 326 328 330 329 328 329 329 328 328 335 337 333 329 329 330 331 332 335 332 334 334 334 334 333 332 333 332 329 326 324 324 323 323 322 320 318 313 311 312 313 314 315 314 314 315
317 318 319 322 327 327 328 327 328 331 329 326 328 333 337 332 329 327 327 327 328 333 330 326 325 324 323 324 325 325 324 324 323 323 322 323 322 321 320 317 315 312 311 311 311 311 310 310 310
318 319 320 325 326 327 329 328 325 324 326 325 326 334 334 331 330 327 325 325 328 329 329 329 323 320 320 321 322 322 322 322 321 321 321 320 322 323 321 318 313 312 312 313 313 312 310 309 308
318 319 319 325 324 325 323 323 323 323 324 323 324 329 332 332 329 326 324 324 326 330 331 331 331 332 333 323 320 320 320 320 320 323 324 327 329 328 326 324 321 317 313 316 317 317 314 313 313
318 318 323 321 321 319 319 318 319 318 323 322 325 326 331 330 329 326 324 324 325 330 331 330 330 330 332 329 323 326 321 326 330 330 329 330 330 329 328 325 325 324 324 323 322 321 321 319 320
318 320 319 318 318 317 316 317 316 317 320 320 323 330 333 331 330 327 326 325 327 330 331 333 331 330 326 327 328 327 328 329 330 330 329 330 328 328 327 328 327 326 326 323 324 322 322 322 321
318 318 317 316 316 317 316 316 316 317 318 318 321 325 333 332 331 328 326 326 329 331 331 336 333 330 329 325 328 328 328 327 329 331 330 329 327 327 326 325 326 323 323 325 322 323 322 322 320
318 317 317 316 316 316 315 316 315 316 317 319 321 322 331 330 329 329 327 327 328 330 330 336 334 330 329 329 328 327 327 325 326 326 328 326 325 325 323 322 320 319 318 318 320 320 320 319 318
318 317 317 316 316 317 318 317 318 316 317 318 321 326 329 330 330 329 329 328 328 330 330 333 333 329 330 325 329 329 327 327 323 326 325 324 324 323 321 320 318 317 317 317 317 317 318 318 316
318 317 317 317 318 318 318 318 319 319 318 317 320 325 328 330 330 330 329 328 328 329 331 333 333 328 326 328 329 329 326 324 323 322 320 322 322 322 320 319 319 318 318 317 317 317 318 319 318
319 318 319 319 320 319 318 320 318 319 319 318 318 321 325 328 328 329 328 328 328 327 329 336 330 328 325 326 327 326 321 320 321 320 320 320 320 320 320 320 319 319 318 318 317 318 318 317 318
319 320 320 320 320 321 320 321 320 320 319 319 319 319 321 326 326 327 328 327 327 329 330 331 333 327 324 325 323 322 322 321 321 321 319 320 320 319 319 319 318 318 318 318 319 318 318 319 318
320 320 322 322 320 321 321 322 321 321 321 320 321 321 320 321 326 325 326 327 327 327 329 333 329 326 323 324 323 322 321 321 319 318 318 317 317 317 317 317 317 317 317 318 319 319 319 320 319
320 320 319 319 320 318 319 320 321 321 321 321 321 321 322 321 324 326 325 325 326 326 327 331 329 323 323 323 323 320 319 318 318 317 317 317 316 316 314 314 314 314 316 315 316 317 315 315 315
319 319 319 321 320 319 320 321 321 322 322 322 322 322 323 324 327 327 325 325 326 327 326 326 324 323 322 322 319 317 316 316 316 316 314 313 313 313 312 311 311 310 311 312 311 311 311 312 313
319 320 320 321 320 319 321 320 321 321 322 322 322 323 325 326 325 324 324 325 327 326 325 324 322 319 317 317 316 315 315 315 314 314 313 313 312 311 310 309 309 310 309 309 309 310 310 309 309
322 321 324 322 322 321 320 322 321 321 321 321 322 322 323 323 323 323 324 323 322 321 320 318 317 315 314 315 314 314 314 313 313 313 313 312 312 311 308 307 307 307 307 307 307 308 308 309 307
322 323 321 321 321 322 321 322 322 321 321 321 321 322 321 320 321 321 322 321 319 318 317 316 315 314 313 313 313 313 313 313 314 314 313 311 309 307 306 305 305 305 305 305 306 306 306 306 307
324 322 321 322 322 322 322 324 325 322 321 321 321 320 321 321 321 320 320 319 318 318 317 316 315 314 314 313 312 313 314 313 312 310 310 308 307 305 304 304 303 304 303 304 305 304 304 305 304
322 324 323 324 325 332 323 325 326 323 322 321 321 321 320 320 320 319 318 318 318 317 316 315 314 314 314 314 314 312 309 309 309 309 308 305 304 303 303 302 302 303 303 302 304 303 303 302 301
322 325 334 338 337 335 325 322 326 322 321 321 321 320 321 321 321 320 319 318 317 316 316 316 316 315 314 313 312 311 310 309 308 306 305 303 302 303 302 302 301 302 302 301 300 299 301 300 299
323 323 336 330 334 330 322 320 323 321 320 319 319 319 319 320 320 319 317 317 316 316 316 316 315 314 314 313 312 311 308 306 306 304 302 302 302 301 300 301 301 300 299 298 298 298 298 298 298
324 324 320 326 326 330 321 324 321 320 319 319 318 318 319 319 318 317 317 317 316 316 315 314 314 314 313 312 309 307 305 305 304 302 301 301 301 300 299 299 299 298 298 298 297 296 296 296 296
321 320 325 330 330 323 319 321 324 322 320 319 318 318 318 319 318 318 317 316 315 314 314 314 313 313 311 308 306 305 304 304 303 301 301 300 299 298 298 298 297 297 297 296 295 295 295 295 295
323 323 321 319 324 325 325 321 318 320 319 318 318 318 318 318 318 317 316 315 314 313 313 312 310 309 308 307 305 304 303 302 301 301 299 298 297 296 296 295 295 295 295 295 293 292 293 293 292
320 321 319 328 322 326 325 320 319 319 319 318 318 317 318 318 316 315 314 313 312 311 311 310 309 308 307 305 304 303 302 300 299 299 298 296 296 296 295 294 294 294 293 292 292 292 293 292 292

GFSSGP_925_thetae_012.txt.gz
Theta_e
308 307 316 315 316 316 318 320 329 333 335 336 336 337 338 338 340 345 341 341 341 340 339 338 338 337 337 337 337 337 337 337 335 334 332 331 329 326 320 318 314 311 312 315 318 320 321 322 322
308 314 316 313 317 319 319 326 335 334 333 333 333 336 341 346 343 341 340 341 341 340 339 338 337 337 337 337 337 336 335 334 333 332 331 327 323 320 317 314 309 309 311 312 313 314 315 316 317
310 315 312 314 315 317 321 327 329 330 332 332 333 330 333 337 340 340 340 340 339 339 338 338 338 337 336 335 334 333 332 333 331 326 324 322 320 318 316 311 309 310 310 311 311 311 310 310 310
315 313 310 313 314 314 325 325 329 333 333 332 331 333 329 335 339 341 342 339 338 338 338 338 338 337 336 335 333 333 333 330 326 322 321 320 319 317 315 312 309 309 309 310 310 309 309 309 309
319 311 313 314 315 327 326 325 327 329 334 332 331 332 332 341 342 342 340 337 336 338 338 339 339 337 337 336 335 331 328 324 320 320 320 319 317 316 315 309 308 308 309 310 310 310 309 309 308
313 311 313 313 317 326 324 325 327 334 331 330 331 331 328 338 342 341 337 336 335 338 340 339 336 333 330 328 326 323 321 319 319 319 318 321 319 321 315 320 319 314 314 319 317 318 317 314 312
314 313 315 315 321 327 322 320 325 332 334 334 328 330 326 329 338 330 331 331 334 334 331 328 325 323 321 321 319 319 318 318 318 318 322 326 326 324 323 324 323 323 322 321 320 321 320 318 318
312 313 315 314 321 324 318 315 317 322 323 329 327 329 327 323 333 331 329 325 325 323 321 320 319 316 314 316 317 316 317 319 319 327 328 327 326 325 326 325 325 324 323 322 321 321 321 320 319
313 313 313 314 319 319 315 316 314 319 326 328 326 326 325 327 331 331 329 327 324 322 323 326 326 319 316 314 316 320 327 326 327 329 329 328 327 326 326 326 326 324 323 323 321 320 321 321 319
312 310 313 313 315 315 313 312 313 322 330 329 327 325 323 325 327 325 326 327 329 328 328 330 329 325 324 320 327 327 326 328 327 329 329 328 327 328 327 326 324 322 321 320 319 319 320 320 319
312 313 312 312 313 311 311 312 313 319 328 330 328 325 322 321 321 324 324 329 330 330 330 330 329 328 327 326 327 327 328 328 327 329 327 327 327 327 324 322 319 318 317 317 318 319 318 316 317
314 312 312 313 310 310 311 310 312 315 318 328 327 325 324 322 321 321 323 328 330 331 330 329 327 328 327 327 327 327 328 329 330 328 328 326 325 323 321 320 317 318 317 317 317 317 316 316 317
311 312 312 311 313 312 310 311 312 314 318 327 327 326 325 324 323 323 323 325 330 330 330 328 328 327 326 326 327 327 327 328 330 328 325 321 323 321 320 319 319 318 319 318 319 318 317 317 318
312 311 311 312 314 315 313 314 314 313 318 330 329 328 327 326 325 324 323 323 329 332 331 329 327 328 329 328 327 327 326 323 326 324 323 318 317 320 319 319 319 317 317 317 316 317 317 316 318
311 311 312 312 315 316 314 315 315 312 320 331 331 329 328 327 327 326 325 323 329 333 332 327 324 326 324 328 328 326 323 323 322 321 320 320 319 320 319 317 315 313 313 314 314 315 316 315 313
315 312 314 315 314 316 313 314 313 310 315 323 328 328 327 326 326 327 326 325 331 334 332 329 325 327 328 329 327 327 320 320 320 320 320 320 320 318 316 312 311 311 311 311 311 311 311 310 309
313 313 315 317 314 316 315 316 313 310 311 313 315 319 319 319 322 324 324 327 332 334 330 327 324 327 326 327 324 321 320 319 317 318 317 316 316 315 314 313 313 311 310 309 309 308 307 306 305
315 316 315 315 316 316 314 316 315 313 312 314 314 319 323 323 323 324 325 331 331 328 326 324 326 324 325 323 322 320 317 316 314 314 314 313 312 312 312 311 310 309 309 308 307 306 306 304 304
317 316 316 316 317 316 315 315 316 315 318 321 323 323 321 318 318 321 323 327 326 325 325 325 327 326 322 317 318 315 315 314 313 312 312 313 313 311 311 308 307 306 306 305 304 304 303 303 303
320 319 318 318 317 314 314 316 315 317 316 320 322 322 320 318 317 317 319 321 320 321 324 319 317 318 315 316 315 315 314 313 313 313 312 310 307 306 306 304 303 303 303 303 303 303 304 304 304
320 319 319 319 317 315 316 316 317 317 317 317 316 319 319 318 316 315 315 315 315 315 314 313 314 314 314 313 313 313 313 313 313 312 310 308 306 304 303 302 302 301 301 302 302 302 302 304 304
323 320 319 319 317 316 314 317 317 318 318 318 318 318 318 318 316 315 314 314 314 314 314 314 314 314 314 313 314 314 313 313 310 309 308 305 304 302 302 301 301 300 301 302 302 302 302 302 302
321 320 320 319 318 319 318 317 317 318 318 317 316 317 316 315 315 314 315 315 315 315 314 314 314 313 313 313 313 313 312 309 309 307 305 304 302 301 301 300 300 300 300 300 299 299 300 300 300
318 321 321 320 319 321 322 320 320 320 318 318 316 315 315 313 313 314 315 316 315 315 315 314 315 313 313 313 313 311 309 308 306 304 303 302 301 301 301 300 298 297 297 297 297 297 297 297 296
318 321 321 324 321 322 323 322 321 318 318 318 317 315 313 312 313 313 315 315 315 314 315 315 313 312 312 311 308 306 305 305 304 303 302 302 301 300 299 296 295 295 294 294 294 294 294 293 293
320 319 318 328 321 319 319 323 319 317 317 317 317 315 314 313 312 312 312 313 313 312 312 312 310 307 307 305 305 306 305 304 304 303 302 301 300 298 295 293 293 293 293 293 293 292 292 292 292
320 317 317 319 316 316 319 319 317 316 316 316 316 317 315 311 310 311 310 311 311 311 310 310 309 309 308 308 307 305 304 303 302 302 301 300 299 297 294 293 293 293 293 292 292 291 290 290 291
315 316 320 315 318 320 317 321 320 318 317 314 314 313 312 311 310 309 309 310 309 309 307 306 306 307 307 306 305 305 304 303 302 301 300 299 298 296 294 293 293 292 290 290 289 289 289 290 291
318 318 317 316 313 317 316 317 317 317 316 315 314 312 311 310 309 308 308 307 307 306 305 305 305 305 306 305 305 305 304 303 301 300 299 298 296 295 293 294 292 290 290 289 289 289 289 289 288
317 318 316 312 319 312 312 313 317 315 314 315 314 312 311 310 308 308 308 307 306 305 304 303 302 301 302 302 304 304 304 302 300 298 298 296 295 294 292 291 290 289 289 289 289 289 288 287 286

GFSSGP_925_thetae_015.txt.gz
Theta_e
308 307 316 315 316 315 317 318 332 333 338 336 336 339 343 344 344 346 340 340 340 339 339 339 338 337 337 336 335 335 336 335 333 331 329 325 320 318 314 310 309 311 317 320 316 316 317 318 319
308 314 315 312 316 316 319 328 336 336 336 333 333 337 342 348 342 342 341 341 340 339 338 338 337 337 337 337 336 336 336 333 331 329 324 320 318 315 312 308 309 309 310 310 310 310 310 311 311
310 314 312 313 313 315 319 328 333 334 333 332 332 330 336 346 341 340 341 341 340 338 337 337 336 337 337 336 336 334 332 331 328 324 320 318 316 315 312 308 308 309 309 309 309 309 309 309 309
314 313 309 313 315 314 320 325 331 333 332 332 334 335 330 339 340 340 342 340 339 338 338 337 337 336 335 334 332 331 332 327 322 319 318 317 316 314 311 308 308 309 309 310 311 309 309 308 308
317 309 312 313 314 319 323 325 331 332 332 332 331 333 335 342 340 341 341 340 339 339 338 337 336 335 334 332 333 331 326 322 319 318 317 315 315 312 310 312 310 311 318 318 318 318 316 313 316
311 308 312 314 315 324 321 324 333 333 332 333 336 332 329 342 340 340 340 339 339 338 339 338 336 335 335 333 329 324 321 319 317 316 318 319 317 318 321 322 321 321 320 320 320 319 318 317 317
312 311 313 314 325 326 324 321 332 331 331 332 329 329 329 340 340 340 339 340 340 338 338 337 334 330 327 324 322 320 318 316 316 318 324 325 322 324 324 324 323 321 321 319 319 319 318 318 317
310 310 315 313 323 327 326 317 324 333 331 326 325 329 338 331 339 338 337 337 337 337 332 326 323 321 320 319 319 317 316 317 319 324 326 325 325 325 325 325 324 323 322 321 319 320 319 318 318
311 312 312 314 321 319 318 316 316 323 328 327 325 325 334 335 336 337 337 336 333 329 321 319 316 315 315 316 315 316 318 319 326 327 327 326 326 326 326 325 325 323 321 321 321 320 319 318 317
312 310 312 313 316 320 319 320 323 329 330 328 323 322 328 330 332 330 330 330 328 324 321 323 318 316 314 315 318 324 324 327 328 329 328 327 327 327 326 324 323 321 319 318 318 319 319 317 316
311 312 311 311 314 315 314 312 316 327 330 327 325 323 324 327 326 326 326 324 324 323 324 325 321 321 319 324 325 326 328 327 328 328 327 327 326 326 324 321 318 318 317 317 317 317 317 316 316
315 311 312 311 313 310 309 310 319 317 326 325 323 321 322 323 324 325 326 327 327 325 328 328 326 324 323 325 326 327 327 328 329 327 326 325 325 323 321 318 318 318 318 318 318 318 317 317 317
312 311 311 310 310 309 309 310 312 313 323 324 322 321 322 322 323 324 328 328 329 328 328 329 328 326 326 325 327 327 327 329 329 328 326 324 323 322 319 318 318 318 317 317 316 315 315 315 314
310 310 310 312 312 311 311 313 314 314 324 324 323 321 321 320 321 322 324 326 328 329 330 329 329 327 327 327 327 327 327 327 329 327 325 320 322 320 319 318 318 315 313 312 312 311 312 314 313
310 311 311 312 313 314 313 315 313 312 326 326 325 324 323 321 321 320 321 324 328 330 330 329 329 327 326 327 327 326 326 324 326 326 322 320 320 320 319 316 312 311 311 311 311 310 310 310 309
313 310 311 312 314 312 312 311 313 316 328 327 326 326 325 324 323 324 323 321 328 330 329 328 327 327 327 327 326 324 322 323 323 321 319 320 319 317 313 312 312 311 311 310 309 308 307 306 305
310 312 314 315 313 313 314 314 312 309 329 329 319 318 319 322 323 323 323 323 327 331 329 327 326 325 327 325 323 320 318 318 318 318 316 314 314 313 312 311 311 310 309 308 306 305 304 304 304
313 315 313 314 314 314 315 314 312 311 314 310 320 320 319 320 322 326 328 328 329 328 327 325 326 325 325 324 320 316 316 314 314 313 312 312 312 312 311 310 308 307 306 305 304 303 303 302 303
316 315 315 314 314 314 314 314 314 318 320 321 319 319 320 319 319 319 324 326 326 326 325 326 326 324 320 316 315 314 313 313 312 312 312 312 309 308 307 306 304 303 302 302 301 301 301 301 302
317 316 317 317 313 314 316 315 316 317 319 320 319 319 318 319 318 317 322 325 326 324 321 319 322 318 316 318 318 314 313 312 313 312 310 308 307 306 304 303 302 302 301 300 301 302 302 302 302
319 318 318 318 314 314 316 317 316 317 318 319 318 316 316 318 317 317 317 319 321 315 314 314 314 314 313 313 313 313 313 313 313 310 308 305 303 303 303 302 301 300 300 300 300 300 300 300 300
322 319 318 318 314 318 314 318 319 317 319 319 319 317 316 316 315 313 313 313 313 313 313 313 313 313 313 313 313 313 313 313 311 308 303 303 302 301 301 300 300 300 299 299 298 298 298 299 299
320 318 318 318 316 316 317 317 318 317 320 319 317 317 316 314 313 311 312 313 313 314 313 313 313 313 313 312 312 312 311 308 307 304 303 302 301 301 303 304 301 299 297 296 295 295 296 296 296
318 319 319 318 317 319 321 318 318 317 317 317 316 317 316 314 312 312 313 313 312 312 312 312 313 312 312 312 311 310 307 305 304 303 304 304 304 305 303 301 297 295 293 292 293 293 293 293 292
317 319 320 322 320 322 319 320 318 317 316 317 317 315 313 313 312 311 312 312 312 313 312 312 312 310 308 307 306 306 306 306 306 305 304 304 303 303 301 297 294 293 292 292 292 292 291 291 291
318 318 319 327 321 318 317 322 319 317 316 316 314 313 312 312 312 310 310 310 310 310 310 309 309 308 308 308 306 304 304 303 303 303 302 302 302 301 299 295 293 292 292 291 291 291 290 289 290
319 316 316 317 314 317 318 318 316 316 316 315 314 313 310 309 308 308 309 309 309 309 308 307 307 307 306 305 305 304 304 303 303 302 302 301 300 298 295 294 293 293 293 291 291 290 290 290 290
316 315 318 313 316 319 317 319 318 316 316 314 313 312 310 308 307 307 308 308 306 306 305 305 305 305 305 304 304 305 304 303 303 302 301 300 299 297 295 294 294 293 291 290 289 289 289 289 289
317 316 314 315 312 315 315 318 314 315 315 314 311 311 309 308 307 306 307 306 305 305 304 304 302 302 303 301 301 302 302 300 298 300 299 297 296 295 295 293 293 292 290 289 289 289 288 288 288
316 316 312 311 317 310 310 312 315 313 313 313 312 311 309 308 306 306 306 305 304 303 303 299 299 298 296 296 295 295 295 296 296 299 297 297 297 296 294 292 293 292 289 289 289 288 288 288 286

GFSSGP_925_thetae_018.txt.gz
Theta_e
309 307 312 313 313 314 316 317 326 333 339 337 338 342 344 344 342 346 341 341 340 341 341 339 338 336 334 334 334 335 335 333 330 328 323 318 315 311 309 310 312 322 324 323 322 313 310 310 310
308 313 313 310 314 314 316 322 337 337 337 334 333 338 342 344 342 341 341 341 340 340 340 338 337 336 335 335 335 336 334 331 328 323 319 316 313 310 309 309 310 309 310 313 310 309 309 309 308
311 314 309 310 312 314 317 332 336 335 333 332 332 331 336 343 341 340 342 341 339 339 338 337 337 336 336 336 336 336 331 329 324 319 317 315 313 310 308 308 309 309 310 311 310 309 308 309 313
313 311 306 312 314 313 317 330 334 334 332 332 332 330 331 338 339 340 341 339 339 338 337 337 336 336 336 335 334 331 328 324 320 318 316 314 313 308 307 308 309 316 317 317 317 316 314 315 315
314 305 309 312 312 314 316 329 332 332 331 332 331 332 338 340 340 341 340 339 338 337 337 337 336 336 334 332 330 330 326 320 318 316 315 314 310 313 316 316 320 319 318 319 318 317 317 315 313
309 305 310 312 314 323 321 327 332 332 332 333 336 333 334 340 341 341 340 339 338 337 337 336 335 334 332 331 331 327 321 318 317 315 316 314 318 322 321 320 320 319 318 318 318 318 317 316 315
310 308 310 313 323 326 322 328 331 332 332 333 329 331 338 339 341 340 339 339 339 338 337 336 335 333 333 331 327 323 319 317 316 321 321 319 321 323 323 321 321 320 319 318 318 317 317 316 316
307 308 313 314 326 328 326 319 330 331 332 325 327 340 341 337 340 340 338 336 338 341 339 336 334 332 330 326 322 319 317 317 318 324 324 323 323 324 324 323 322 321 321 319 318 318 317 316 316
308 310 311 316 326 328 325 323 319 325 327 327 323 330 336 338 340 336 336 335 337 339 334 331 328 326 323 321 319 317 317 318 322 325 325 325 325 325 325 324 322 320 319 319 319 319 318 316 316
311 310 311 311 317 325 325 320 325 329 329 325 325 330 335 336 337 333 333 333 337 335 329 325 323 320 318 317 316 317 318 323 327 327 327 326 327 326 325 323 320 319 317 317 317 318 317 316 316
310 313 310 311 318 322 318 319 322 328 330 325 330 332 332 333 333 333 332 332 328 326 324 321 317 315 315 315 318 320 325 327 327 328 327 327 326 326 324 320 318 317 317 318 317 317 317 316 315
313 311 310 310 313 313 313 312 326 323 324 324 330 330 330 330 328 329 328 327 325 324 322 323 319 317 316 319 323 326 326 326 327 327 327 325 325 323 320 317 318 318 318 317 317 316 314 313 313
313 312 310 309 309 309 309 312 322 316 324 321 327 327 328 328 325 324 322 321 323 323 324 324 322 321 320 323 325 326 327 327 328 327 327 324 323 321 319 318 318 317 315 313 312 312 311 311 311
312 309 310 310 307 308 309 310 312 315 321 320 325 326 325 325 324 324 324 325 325 325 326 326 325 322 322 323 325 326 327 328 328 329 327 324 322 319 319 318 315 312 311 311 310 310 310 309 308
309 310 310 310 312 312 311 314 312 319 322 321 322 323 320 320 321 321 323 325 327 327 327 327 327 327 324 326 325 325 326 325 327 328 324 320 321 319 318 313 311 311 311 310 309 308 307 306 305
311 309 310 311 313 311 309 309 309 323 324 323 321 322 322 320 321 322 321 323 325 328 328 328 328 326 326 326 325 326 325 322 323 322 319 319 317 313 312 312 311 310 309 308 306 305 304 303 303
309 311 313 315 312 313 312 313 310 311 325 322 319 319 321 322 324 324 323 321 325 328 328 327 326 326 325 324 326 322 320 317 315 314 313 312 313 312 312 311 310 308 306 305 304 302 301 300 300
311 312 312 314 313 311 312 315 315 315 315 319 318 318 319 320 322 323 323 325 327 327 327 326 325 325 325 325 321 315 314 313 314 314 312 312 314 311 310 307 305 304 302 301 301 300 300 300 302
313 314 314 313 312 314 316 316 316 318 317 318 318 318 319 319 319 322 323 324 325 326 325 325 326 325 322 313 313 314 315 315 313 312 311 311 311 308 305 304 302 301 301 300 300 299 299 299 300
314 313 316 314 313 316 318 316 316 317 319 317 318 318 319 317 317 319 321 323 325 325 326 325 324 315 315 315 318 318 313 312 312 310 308 306 305 304 303 302 301 301 302 303 301 299 299 300 300
318 316 317 315 315 315 316 316 317 317 319 317 315 315 317 318 318 318 319 317 316 317 322 322 319 316 316 315 313 312 312 312 312 307 305 303 303 302 302 302 304 305 301 300 298 297 297 298 298
320 318 316 315 316 318 313 321 319 319 320 318 317 315 316 316 314 313 312 311 312 311 312 312 312 312 312 312 312 312 312 311 308 305 303 302 302 303 304 305 304 301 299 298 296 295 294 295 296
319 317 316 315 315 314 316 318 317 319 322 320 318 316 315 313 312 311 310 311 311 311 311 312 312 312 312 312 312 311 310 307 305 304 304 304 304 303 303 303 302 299 297 294 293 292 292 292 292
316 318 316 316 315 319 320 317 317 318 319 318 317 316 314 313 312 310 311 311 311 311 312 313 313 312 311 310 308 307 305 305 304 305 304 303 303 302 302 301 297 294 293 292 291 291 290 291 290
317 317 319 321 319 321 317 318 316 315 316 318 317 315 313 313 311 309 310 310 311 312 312 311 310 308 307 307 306 304 302 302 302 303 303 302 302 301 301 299 295 293 292 291 291 290 290 289 289
316 317 318 325 322 319 317 321 318 314 314 315 315 313 311 311 310 309 309 309 308 308 308 308 308 308 306 304 303 303 303 303 303 303 302 302 301 301 300 297 294 294 293 292 292 291 290 289 289
317 316 314 316 313 316 317 317 317 315 315 315 313 312 312 309 308 307 307 308 308 308 307 307 306 305 304 303 304 304 304 303 302 301 300 301 300 299 298 295 295 294 293 293 292 291 289 289 289
316 314 316 312 316 317 316 318 318 317 317 314 313 311 309 307 306 306 307 307 306 305 305 305 304 304 304 303 301 300 301 297 295 295 296 298 298 297 297 296 295 293 293 292 291 290 289 288 288
316 315 313 313 310 313 313 316 311 317 316 313 311 310 309 307 306 305 306 305 304 304 304 303 301 301 300 297 296 295 294 293 292 293 293 293 294 296 297 296 294 293 293 292 290 289 288 288 288
315 315 311 310 314 309 309 310 310 312 312 311 311 310 307 306 305 305 305 305 304 303 302 300 299 297 296 295 295 294 293 293 294 293 292 293 293 294 295 295 293 292 293 291 289 289 288 288 287

GFSSGP_925_thetae_021.txt.gz
Theta_e
310 307 311 314 317 318 319 318 330 340 344 340 340 341 342 343 345 348 341 340 340 340 340 338 335 333 333 333 333 334 332 330 325 321 317 314 310 310 312 315 322 325 325 321 317 310 308 308 307
308 311 313 315 318 318 320 329 342 342 338 335 335 336 337 337 342 342 341 340 340 340 340 338 335 334 334 333 335 334 331 327 322 318 315 312 309 309 310 312 313 315 316 313 309 308 310 313 313
310 314 315 317 317 318 321 338 339 336 333 331 334 334 339 335 339 341 341 340 340 340 339 337 336 335 334 334 335 332 329 324 319 316 314 311 309 309 310 310 313 316 318 317 313 314 314 313 314
312 313 312 318 316 316 321 337 336 336 334 332 332 333 336 338 339 338 340 340 340 339 338 337 336 335 335 336 335 330 327 321 317 316 314 311 308 308 309 317 318 318 317 315 316 314 313 311 311
311 311 315 315 315 315 318 335 334 334 333 333 332 330 341 340 340 340 340 339 339 338 337 337 336 335 336 336 331 328 324 319 317 315 314 309 310 312 318 318 317 317 317 317 316 316 316 315 313
316 311 316 317 322 325 327 332 332 333 331 332 334 338 340 340 340 340 339 339 338 338 337 337 336 336 335 331 330 326 321 317 317 315 313 315 318 318 320 319 318 318 318 317 317 316 316 316 316
315 314 315 316 327 327 327 332 333 333 333 334 331 340 341 341 340 340 339 339 337 337 337 337 337 335 331 330 330 324 319 317 317 317 316 320 322 321 320 321 320 319 318 318 317 316 315 315 316
313 313 315 319 328 329 323 326 329 330 332 328 332 341 342 339 339 340 339 339 338 337 338 336 334 333 332 332 328 322 318 317 321 321 320 322 323 324 322 321 320 320 318 317 317 316 316 315 315
309 316 316 321 329 329 326 325 324 327 330 328 325 337 337 338 338 338 337 337 337 336 336 338 334 333 332 329 325 320 317 318 323 323 323 324 324 324 324 322 320 318 318 317 317 317 316 316 315
315 316 315 316 329 330 328 324 325 331 330 327 335 336 338 337 336 337 337 336 335 335 337 337 334 332 327 323 320 319 319 320 324 325 325 325 325 325 324 322 319 318 317 317 317 317 317 316 314
313 318 314 313 324 328 326 324 326 330 332 328 335 336 335 335 335 336 334 335 335 335 335 332 329 325 322 321 319 319 319 324 326 327 327 326 326 326 325 320 317 317 317 317 317 317 315 313 312
315 313 311 312 317 323 321 320 330 330 328 326 334 337 335 335 334 334 334 334 332 332 331 326 323 321 320 319 319 320 324 326 327 327 327 327 326 324 321 317 317 317 316 315 314 313 311 311 310
314 315 311 311 312 317 316 320 329 326 325 329 335 337 338 336 334 333 331 329 328 328 325 323 321 320 319 320 322 324 326 326 327 328 327 325 323 320 318 318 317 315 312 311 311 310 310 309 308
315 311 311 309 309 310 315 313 319 318 323 332 334 336 335 332 330 327 325 324 325 324 324 324 322 321 321 323 324 325 325 326 325 327 327 325 322 319 318 316 312 311 311 311 310 309 308 307 306
310 312 311 311 311 312 312 314 312 320 324 331 333 330 329 327 325 325 323 324 324 325 325 325 325 323 323 325 325 325 319 319 320 324 323 321 320 318 314 313 312 312 312 310 308 307 306 305 305
312 312 314 312 313 311 311 313 316 316 324 325 327 325 325 323 323 323 321 324 326 327 327 326 326 325 325 325 325 325 321 320 321 321 320 319 316 314 313 312 311 309 307 305 305 304 304 304 303
313 314 314 314 314 313 314 316 318 316 325 324 324 324 324 326 325 324 323 323 326 327 327 325 325 325 322 322 320 323 322 318 316 315 314 314 313 312 312 311 308 305 304 303 302 302 301 302 302
315 314 313 315 315 317 320 321 320 319 324 325 324 324 325 326 325 321 324 324 325 326 325 326 324 324 324 323 324 319 315 313 312 314 312 311 311 309 308 306 304 303 302 301 302 302 302 302 302
313 314 315 313 314 321 321 323 321 321 322 324 324 325 325 324 323 323 324 325 325 324 324 325 326 325 325 321 317 313 312 313 313 310 310 309 307 305 305 303 302 302 304 303 301 301 301 300 300
315 317 317 316 316 321 322 324 323 321 320 321 324 324 325 323 323 322 324 325 326 326 325 325 325 324 320 314 314 315 314 312 310 308 308 306 305 304 303 303 304 304 302 300 299 298 299 299 299
318 318 317 319 318 318 321 323 324 322 322 321 321 323 324 324 325 323 322 323 322 323 324 323 317 314 313 314 315 313 311 311 309 306 305 304 304 304 303 302 303 301 299 300 298 298 297 296 296
321 317 317 319 320 322 316 321 323 325 325 324 324 325 325 325 324 320 316 315 316 320 321 316 314 314 312 311 311 311 311 311 307 306 305 304 304 303 302 302 302 300 298 296 296 295 294 294 293
320 316 317 315 317 318 319 323 322 324 327 327 324 322 321 321 320 315 312 311 309 311 311 311 311 311 311 311 310 309 307 306 305 304 304 303 302 301 301 301 301 299 296 293 291 292 293 293 292
317 319 319 319 319 322 320 320 321 327 327 325 321 320 319 317 315 312 310 309 309 310 311 311 310 308 308 308 307 304 301 302 303 303 303 302 302 301 301 301 300 297 293 292 292 290 290 292 292
319 321 325 327 327 324 318 320 321 319 321 324 322 320 318 316 314 313 312 312 310 310 308 308 308 307 307 304 303 302 302 302 303 303 303 303 303 302 301 300 299 294 294 295 292 293 293 292 291
318 321 328 325 327 325 317 324 322 317 317 322 320 319 317 316 314 313 312 311 310 308 308 308 307 306 304 303 302 302 303 303 303 302 301 298 299 300 299 299 298 294 297 294 293 294 294 293 292
318 319 317 319 314 322 320 319 318 316 316 319 319 318 317 316 314 313 310 309 308 307 307 306 305 304 303 302 302 302 302 300 296 294 294 295 293 293 296 298 296 296 294 294 294 294 294 293 291
318 315 320 318 320 319 317 320 322 320 319 319 318 318 317 315 313 311 309 308 307 306 305 304 304 303 302 303 299 296 294 294 293 292 292 292 293 292 293 296 296 296 294 294 293 293 292 291 290
318 317 315 315 315 317 317 316 316 320 319 320 319 317 316 314 312 311 309 306 305 305 305 304 303 302 301 297 295 294 294 293 293 293 293 293 292 293 294 295 295 294 293 293 293 292 290 289 289
315 316 316 319 316 314 315 316 311 315 317 318 317 314 314 313 311 309 307 305 304 304 303 301 300 299 297 296 295 294 294 293 293 293 293 292 292 292 293 294 294 293 292 293 291 289 289 289 288

GFSSGP_925_thetae_024.txt.gz
Theta_e
317 313 312 318 322 323 326 324 339 346 346 338 338 341 344 344 347 351 342 342 343 342 340 336 332 332 332 332 333 333 331 329 324 319 315 311 311 312 316 318 319 322 322 321 314 310 311 312 313
311 311 316 320 321 324 326 326 332 343 339 334 333 334 336 338 341 342 341 342 343 342 340 338 332 332 332 333 334 332 330 325 319 315 311 310 311 312 314 315 317 318 319 317 313 314 314 314 314
312 315 319 319 320 323 325 337 340 337 334 333 334 334 333 334 338 337 341 342 342 342 341 339 333 333 333 334 334 332 326 321 317 314 311 310 311 311 312 316 318 318 317 315 313 311 310 311 313
313 317 318 319 321 320 325 337 337 336 334 331 332 338 336 332 332 330 338 341 341 342 341 338 334 334 334 335 334 330 324 320 317 315 311 310 310 311 318 318 318 316 316 315 315 315 313 311 311
315 318 319 320 320 319 322 336 337 335 334 331 330 334 339 339 335 336 341 338 338 339 340 338 335 334 334 335 333 328 322 319 318 316 312 309 310 318 318 317 317 316 316 316 316 316 316 315 315
317 318 318 320 324 326 323 334 335 333 331 331 333 334 344 341 340 342 342 339 337 341 340 339 335 335 334 336 331 326 321 319 317 315 311 314 316 319 318 317 318 317 317 316 316 316 316 316 316
318 317 319 322 329 331 330 334 334 330 332 333 334 336 343 341 342 341 342 340 340 341 340 338 337 334 334 333 330 324 319 318 317 314 318 319 319 320 320 319 319 319 318 317 316 316 315 315 316
319 318 319 325 330 333 334 332 330 329 333 333 335 337 345 341 341 340 339 340 340 340 340 339 338 337 336 335 329 322 320 319 319 317 320 322 322 321 321 321 321 320 319 318 317 316 316 315 314
317 318 320 328 330 330 329 330 328 330 333 332 330 338 340 340 341 340 339 339 340 339 338 338 336 336 335 333 331 323 319 320 322 321 321 324 327 327 326 321 320 318 318 317 317 316 316 316 316
319 319 320 325 329 331 329 326 326 332 334 332 339 340 341 341 340 340 340 339 339 338 337 335 337 335 334 330 329 326 324 326 329 329 328 329 329 328 326 323 318 317 317 317 317 317 316 317 317
319 320 318 320 329 327 324 325 324 328 334 333 337 342 339 339 338 339 339 338 337 337 335 334 336 333 329 327 325 324 325 329 330 330 330 331 330 330 328 324 321 321 319 320 320 319 317 317 316
320 319 318 322 328 326 325 326 327 328 329 330 335 340 340 339 340 340 338 338 338 336 333 332 330 329 327 324 323 325 328 330 330 331 332 330 329 329 328 321 321 321 320 320 318 317 316 315 314
318 319 317 316 323 328 326 326 329 330 329 332 338 340 340 339 335 333 332 331 331 330 329 328 327 325 325 325 327 329 329 329 330 330 329 328 327 326 323 322 320 319 318 317 316 316 315 313 312
319 318 316 314 319 325 325 324 327 325 331 337 339 339 338 336 332 330 329 328 327 326 328 327 326 325 326 327 328 328 325 320 321 321 322 325 323 324 322 320 318 317 316 316 315 314 312 311 311
316 316 315 314 317 320 323 321 319 324 330 336 337 337 336 333 331 328 325 325 325 325 328 329 327 326 327 328 326 321 320 319 320 320 320 322 322 320 319 317 317 316 314 313 312 311 310 309 309
315 316 316 316 316 314 319 319 320 324 329 334 335 335 334 331 329 327 325 324 324 327 330 329 327 326 328 327 322 319 319 321 321 321 321 320 316 314 316 315 314 312 310 310 309 309 308 308 308
315 315 316 317 318 316 317 317 321 325 328 331 333 332 331 329 328 328 325 326 328 330 330 329 328 327 322 321 322 321 321 322 318 319 316 312 312 311 310 311 310 309 308 308 307 308 308 308 307
316 317 315 316 320 317 319 323 321 327 329 329 330 330 330 331 330 327 328 329 330 331 330 329 328 324 324 321 318 321 318 315 314 313 312 311 311 311 310 309 308 307 308 308 308 307 307 305 305
317 318 316 318 321 324 324 324 323 327 329 330 329 330 331 330 328 328 328 329 330 330 329 329 326 327 325 324 322 318 317 315 312 312 310 310 309 308 308 307 308 308 307 306 305 304 303 302 302
318 318 320 319 320 324 325 326 325 324 328 330 330 330 331 330 329 328 329 329 328 328 328 328 328 328 326 322 319 318 318 316 312 310 309 308 308 307 307 306 306 305 303 304 304 303 302 301 300
321 321 321 321 322 323 325 327 327 325 325 326 328 329 330 330 330 330 330 330 329 329 329 329 328 326 319 319 319 318 316 313 312 311 310 308 307 306 305 304 303 302 301 301 302 301 300 299 298
322 320 321 322 323 322 322 323 328 328 328 328 329 330 330 330 331 330 330 329 330 329 328 323 320 318 318 316 315 316 316 316 312 310 308 307 305 304 303 303 303 302 301 301 300 298 298 297 297
322 320 322 321 323 323 323 323 328 329 331 331 332 332 332 329 327 325 324 324 324 324 321 318 316 315 315 315 314 313 312 310 308 307 306 305 304 304 304 303 303 303 302 300 298 297 297 296 296
320 322 322 322 323 324 322 323 321 329 329 331 331 329 329 326 322 319 317 317 317 317 316 315 314 313 312 311 310 309 307 305 304 304 304 303 302 303 303 303 302 302 301 299 298 298 297 296 294
323 324 323 327 326 324 323 323 320 322 326 330 329 327 326 323 320 318 316 315 315 315 315 313 313 312 310 308 305 304 304 304 303 303 302 302 300 299 299 299 298 299 300 298 298 297 297 296 294
323 323 322 319 321 321 322 323 323 321 322 327 327 325 323 321 319 318 316 316 315 314 314 313 312 309 307 305 305 305 303 303 302 301 299 298 298 296 296 296 297 299 299 298 297 297 296 295 294
321 322 322 325 321 326 322 323 322 321 321 326 326 324 322 321 320 318 317 316 315 314 313 312 309 306 305 303 302 304 303 300 298 298 298 296 296 295 295 295 296 297 298 298 297 296 296 295 294
322 320 323 323 325 321 320 321 320 324 322 324 326 324 322 321 320 319 317 316 314 313 311 309 308 305 303 304 302 300 299 298 298 297 296 296 295 295 294 294 295 296 296 296 296 295 295 294 293
321 321 319 320 321 318 316 315 321 321 323 324 325 323 322 321 320 319 316 315 313 311 309 309 306 304 303 300 299 299 298 297 297 296 296 296 295 295 294 294 295 295 295 295 295 295 295 293 292
320 321 319 319 319 320 321 317 316 320 322 322 324 323 322 321 320 318 316 313 311 309 309 305 304 302 299 300 299 298 297 297 297 296 296 296 295 295 294 295 294 294 294 295 295 294 292 292 291